Weather History for Hazlehurst, GA

Change the Weather History Date:

Thursday, January 3, 2013

  Actual Average Record
Temperature  
Mean Temperature 46 °F -  
Max Temperature 75 °F 60 °F 75 °F (2013)
Min Temperature 39 °F 34 °F 27 °F (2014)
Degree Days  
Heating Degree Days 19    
Moisture  
Dew Point 45 °F    
Average Humidity 95    
Maximum Humidity 100    
Minimum Humidity 83    
Precipitation  
Precipitation 0.00 in - - ()
Sea Level Pressure  
Sea Level Pressure 30.19 in    
Wind  
Wind Speed 3 mph (NNW)    
Max Wind Speed 7 mph    
Max Gust Speed -    
Visibility 9 miles    
Events Rain    
Averages and records for this station are not official NWS values.
T = Trace of Precipitation, MM = Missing Value Source: NWS Daily Summary

Daily Weather History Graph

Daily Weather History Graph

Search for Another Location

Airport:

Trip Planner

Search our weather history database for the weather conditions in past years. The results will help you decide how hot, cold, wet, or windy it might be!

Date:

Astronomy

Jan. 03, 2013 Rise Set
Actual Time 7:31 AM EST 5:39 PM EST
Civil Twilight 7:04 AM EST 6:06 PM EST
Nautical Twilight 6:34 AM EST 6:36 PM EST
Astronomical Twilight 6:04 AM EST 7:06 PM EST
Moon 11:47 PM EST (1/3) 11:05 AM EST (1/3)
Length of Visible Light 11h 01m
Length of Day
10h 08m
Waning Gibbous, 65% of the Moon is Illuminated
Jan 3
Waning Gibbous
Jan 4
Last Quarter
Jan 11
New
Jan 18
First Quarter
Jan 26
Full

Hourly Weather History & Observations

Time (EST) Temp. Windchill Dew Point Humidity Pressure Visibility Wind Dir Wind Speed Gust Speed Precip Events Conditions
12:15 AM 52.9 °F - 51.4 °F 95% 30.10 in 10.0 mi North 3.5 mph - N/A   Overcast
12:35 AM 52.7 °F - 51.6 °F 96% 30.09 in 10.0 mi NE 3.5 mph - N/A   Overcast
12:55 AM 52.9 °F - 50.7 °F 92% 30.09 in 10.0 mi North 4.6 mph - N/A   Overcast
1:15 AM 52.9 °F - 49.8 °F 89% 30.10 in 10.0 mi North 5.8 mph - N/A   Overcast
1:35 AM 52.5 °F - 49.6 °F 90% 30.10 in 10.0 mi North 3.5 mph - N/A   Overcast
1:55 AM 52.3 °F - 49.1 °F 89% 30.10 in 10.0 mi North 3.5 mph - N/A   Overcast
2:15 AM 52.2 °F - 48.7 °F 88% 30.10 in 10.0 mi NNW 4.6 mph - N/A   Overcast
2:35 AM 52.0 °F - 48.7 °F 89% 30.11 in 10.0 mi NNW 3.5 mph - N/A   Overcast
2:55 AM 52.0 °F - 48.4 °F 88% 30.10 in 10.0 mi Calm Calm - N/A   Overcast
3:15 AM 51.8 °F - 48.2 °F 88% 30.10 in 10.0 mi NNW 4.6 mph - N/A   Overcast
3:35 AM 51.4 °F - 48.6 °F 90% 30.10 in 10.0 mi NNW 5.8 mph - N/A   Overcast
3:55 AM 51.3 °F - 48.2 °F 89% 30.11 in 10.0 mi NNW 5.8 mph - N/A   Overcast
4:15 AM 51.1 °F - 47.7 °F 88% 30.12 in 10.0 mi NNW 6.9 mph - N/A   Overcast
4:35 AM 50.9 °F - 46.9 °F 86% 30.13 in 10.0 mi NW 3.5 mph - N/A   Overcast
4:55 AM 50.5 °F - 46.4 °F 86% 30.14 in 10.0 mi NNW 3.5 mph - N/A   Overcast
5:15 AM 50.2 °F - 45.1 °F 83% 30.14 in 10.0 mi NNW 4.6 mph - N/A   Overcast
5:35 AM 49.8 °F - 44.8 °F 83% 30.14 in 10.0 mi Calm Calm - N/A   Light Drizzle
5:55 AM 49.3 °F - 44.8 °F 84% 30.16 in 10.0 mi NW 3.5 mph - N/A   Overcast
6:15 AM 48.7 °F - 44.4 °F 85% 30.15 in 10.0 mi NNW 4.6 mph - N/A Rain Light Rain
6:35 AM 48.0 °F - 45.1 °F 90% 30.15 in 10.0 mi NNW 4.6 mph - N/A   Overcast
6:55 AM 47.8 °F - 44.4 °F 88% 30.16 in 10.0 mi NNW 5.8 mph - N/A   Overcast
7:15 AM 47.5 °F - 43.3 °F 86% 30.15 in 10.0 mi North 6.9 mph - N/A   Light Drizzle
7:35 AM 47.1 °F - 42.8 °F 85% 30.16 in 10.0 mi NNW 5.8 mph - N/A   Light Drizzle
8:15 AM 46.2 °F 43.3 °F 43.7 °F 91% 30.15 in 10.0 mi North 5.8 mph - N/A Rain Light Rain
8:35 AM 45.5 °F - 43.9 °F 94% 30.18 in 10.0 mi Calm Calm - N/A   Light Drizzle
8:55 AM 45.7 °F - 44.2 °F 95% 30.18 in 10.0 mi Calm Calm - N/A   Overcast
9:15 AM 46.0 °F - 43.9 °F 92% 30.20 in 10.0 mi Calm Calm - N/A Rain Light Rain
9:35 AM 45.9 °F - 44.4 °F 95% 30.22 in 10.0 mi Calm Calm - N/A Rain Rain
9:55 AM 45.5 °F 44.2 °F 44.8 °F 97% 30.22 in 10.0 mi NNW 3.5 mph - N/A Rain Light Rain
10:15 AM 45.5 °F - 44.6 °F 97% 30.22 in 10.0 mi Calm Calm - N/A Rain Light Rain
10:35 AM 45.5 °F - 44.6 °F 97% 30.23 in 10.0 mi Calm Calm - N/A Rain Light Rain
10:55 AM 45.5 °F - 44.6 °F 97% 30.23 in 10.0 mi Calm Calm - N/A Rain Light Rain
11:15 AM 45.7 °F 44.4 °F 44.6 °F 96% 30.22 in 10.0 mi North 3.5 mph - N/A Rain Rain
11:35 AM 45.3 °F 44.0 °F 44.1 °F 95% 30.20 in 7.0 mi North 3.5 mph - N/A Rain Light Rain
11:55 AM 45.3 °F - 44.8 °F 98% 30.21 in 10.0 mi Calm Calm - N/A Rain Light Rain
12:15 PM 45.9 °F - 45.3 °F 98% 30.20 in 10.0 mi Calm Calm - N/A Rain Light Rain
12:35 PM 46.0 °F 44.8 °F 45.9 °F 99% 30.20 in 10.0 mi NW 3.5 mph - N/A Rain Light Rain
12:55 PM 45.5 °F 44.2 °F 45.5 °F 100% 30.19 in 10.0 mi NNW 3.5 mph - N/A Rain Light Rain
1:15 PM 45.5 °F 42.5 °F 45.5 °F 100% 30.18 in 10.0 mi NNW 5.8 mph - N/A Rain Light Rain
1:35 PM - - - N/A% 30.18 in 10.0 mi Calm Calm - N/A Rain Light Rain
1:55 PM 45.0 °F 41.2 °F 45.1 °F 100% 30.18 in 7.0 mi NW 6.9 mph - N/A Rain Rain
2:15 PM 44.6 °F 43.1 °F 44.8 °F 100% 30.16 in 5.0 mi North 3.5 mph - N/A Rain Rain
2:35 PM 44.6 °F - 44.8 °F 100% 30.15 in 7.0 mi Calm Calm - N/A Rain Rain
2:55 PM 44.6 °F - 44.8 °F 100% 30.17 in 5.0 mi Calm Calm - N/A Rain Rain
3:15 PM 44.8 °F - 45.0 °F 100% 30.15 in 4.0 mi Calm Calm - N/A Rain Rain
3:35 PM 45.0 °F - 45.1 °F 100% 30.17 in 7.0 mi Calm Calm - N/A Rain Light Rain
3:55 PM 45.0 °F - 45.1 °F 100% 30.18 in 10.0 mi Calm Calm - N/A Rain Light Rain
4:15 PM 45.0 °F - 45.1 °F 100% 30.19 in 10.0 mi Calm Calm - N/A Rain Light Rain
4:35 PM 45.0 °F - 45.1 °F 100% 30.20 in 10.0 mi Calm Calm - N/A   Light Drizzle
4:55 PM - - - N/A% 30.19 in 10.0 mi Calm Calm - N/A   Overcast
5:15 PM - - - N/A% 30.20 in 10.0 mi West 3.5 mph - N/A   Overcast
5:55 PM 45.1 °F 43.7 °F 45.3 °F 100% 30.22 in 10.0 mi WNW 3.5 mph - N/A   Overcast
6:15 PM 45.0 °F - 45.1 °F 100% 30.22 in 10.0 mi Calm Calm - N/A   Overcast
6:35 PM 45.0 °F - 45.1 °F 100% 30.23 in 10.0 mi Calm Calm - N/A   Overcast
6:55 PM 45.0 °F 43.5 °F 45.1 °F 100% 30.24 in 10.0 mi WNW 3.5 mph - N/A   Scattered Clouds
7:15 PM 44.8 °F - 45.0 °F 100% 30.24 in 10.0 mi Calm Calm - N/A   Mostly Cloudy
7:35 PM 44.8 °F 43.3 °F 45.0 °F 100% 30.24 in 10.0 mi NW 3.5 mph - N/A   Scattered Clouds
7:55 PM 44.6 °F 43.1 °F 44.8 °F 100% 30.25 in 10.0 mi NNW 3.5 mph - N/A   Clear
8:15 PM 44.6 °F 42.2 °F 44.8 °F 100% 30.26 in 10.0 mi NNW 4.6 mph - N/A   Clear
8:35 PM 44.2 °F 42.7 °F 44.4 °F 100% 30.26 in 10.0 mi NNW 3.5 mph - N/A   Clear
8:55 PM 43.9 °F 41.3 °F 44.1 °F 100% 30.26 in 10.0 mi NW 4.6 mph - N/A   Clear
9:15 PM - - - N/A% 30.27 in 10.0 mi NNW 3.5 mph - N/A   Clear
9:35 PM 43.2 °F 40.5 °F 43.3 °F 100% 30.27 in 10.0 mi NW 4.6 mph - N/A   Clear
9:55 PM 42.8 °F - 42.8 °F 100% 30.27 in 10.0 mi Calm Calm - N/A   Clear
10:15 PM 42.1 °F - 42.3 °F 100% 30.27 in 7.0 mi Calm Calm - N/A   Clear
10:35 PM - - - N/A% 30.27 in 7.0 mi Calm Calm - N/A   Clear
10:55 PM 41.4 °F - 41.5 °F 100% 30.27 in 7.0 mi Calm Calm - N/A   Clear
11:15 PM 40.6 °F - 40.8 °F 100% 30.27 in 7.0 mi Calm Calm - N/A   Clear
11:35 PM 40.3 °F - 40.5 °F 100% 30.27 in 7.0 mi Calm Calm - N/A   Clear
11:55 PM 39.6 °F - 39.7 °F 100% 30.27 in 4.0 mi Calm Calm - N/A   Clear